Year,Month,Day,Hour,Minute,Value (Times are PST for temperature in C)
2021,06,25,00,00,21.10
2021,06,25,00,01,21.10
2021,06,25,00,02,21.00
2021,06,25,00,03,20.90
2021,06,25,00,04,20.90
2021,06,25,00,05,20.80
2021,06,25,00,06,20.80
2021,06,25,00,07,20.80
2021,06,25,00,08,20.80
2021,06,25,00,09,20.70
2021,06,25,00,10,20.70
2021,06,25,00,11,20.60
2021,06,25,00,12,20.60
2021,06,25,00,13,20.60
2021,06,25,00,14,20.50
2021,06,25,00,15,20.50
2021,06,25,00,16,20.50
2021,06,25,00,17,20.50
2021,06,25,00,18,20.50
2021,06,25,00,19,20.60
2021,06,25,00,20,20.60
2021,06,25,00,21,20.60
2021,06,25,00,22,20.60
2021,06,25,00,23,20.50
2021,06,25,00,24,20.50
2021,06,25,00,25,20.40
2021,06,25,00,26,20.40
2021,06,25,00,27,20.30
2021,06,25,00,28,20.30
2021,06,25,00,29,20.20
2021,06,25,00,30,20.20
2021,06,25,00,31,20.20
2021,06,25,00,32,20.20
2021,06,25,00,33,20.20
2021,06,25,00,34,20.10
2021,06,25,00,35,20.10
2021,06,25,00,36,20.10
2021,06,25,00,37,20.00
2021,06,25,00,38,19.90
2021,06,25,00,39,19.90
2021,06,25,00,40,19.90
2021,06,25,00,41,19.80
2021,06,25,00,42,19.80
2021,06,25,00,43,19.80
2021,06,25,00,44,19.80
2021,06,25,00,45,19.70
2021,06,25,00,46,19.70
2021,06,25,00,47,19.70
2021,06,25,00,48,19.70
2021,06,25,00,49,19.70
2021,06,25,00,50,19.70
2021,06,25,00,51,19.70
2021,06,25,00,52,19.70
2021,06,25,00,53,19.70
2021,06,25,00,54,19.70
2021,06,25,00,55,19.70
2021,06,25,00,56,19.60
2021,06,25,00,57,19.70
2021,06,25,00,58,19.70
2021,06,25,00,59,19.60
2021,06,25,01,00,19.60
2021,06,25,01,01,19.60
2021,06,25,01,02,19.50
2021,06,25,01,03,19.50
2021,06,25,01,04,19.50
2021,06,25,01,05,19.40
2021,06,25,01,06,19.40
2021,06,25,01,07,19.40
2021,06,25,01,08,19.40
2021,06,25,01,09,19.30
2021,06,25,01,10,19.30
2021,06,25,01,11,19.30
2021,06,25,01,12,19.20
2021,06,25,01,13,19.20
2021,06,25,01,14,19.20
2021,06,25,01,15,19.20
2021,06,25,01,16,19.10
2021,06,25,01,17,19.10
2021,06,25,01,18,19.10
2021,06,25,01,19,19.10
2021,06,25,01,20,19.10
2021,06,25,01,21,19.20
2021,06,25,01,22,19.20
2021,06,25,01,23,19.30
2021,06,25,01,24,19.40
2021,06,25,01,25,19.60
2021,06,25,01,26,19.70
2021,06,25,01,27,19.80
2021,06,25,01,28,20.00
2021,06,25,01,29,20.10
2021,06,25,01,30,20.20
2021,06,25,01,31,20.30
2021,06,25,01,32,20.30
2021,06,25,01,33,20.40
2021,06,25,01,34,20.40
2021,06,25,01,35,20.50
2021,06,25,01,36,20.60
2021,06,25,01,37,20.60
2021,06,25,01,38,20.60
2021,06,25,01,39,20.60
2021,06,25,01,40,20.60
2021,06,25,01,41,20.60
2021,06,25,01,42,20.60
2021,06,25,01,43,20.60
2021,06,25,01,44,20.60
2021,06,25,01,45,20.50
2021,06,25,01,46,20.50
2021,06,25,01,47,20.50
2021,06,25,01,48,20.40
2021,06,25,01,49,20.40
2021,06,25,01,50,20.40
2021,06,25,01,51,20.40
2021,06,25,01,52,20.40
2021,06,25,01,53,20.40
2021,06,25,01,54,20.40
2021,06,25,01,55,20.40
2021,06,25,01,56,20.40
2021,06,25,01,57,20.40
2021,06,25,01,58,20.30
2021,06,25,01,59,20.30
2021,06,25,02,00,20.30
2021,06,25,02,01,20.20
2021,06,25,02,02,20.20
2021,06,25,02,03,20.10
2021,06,25,02,04,20.10
2021,06,25,02,05,20.00
2021,06,25,02,06,19.90
2021,06,25,02,07,19.80
2021,06,25,02,08,19.70
2021,06,25,02,09,19.70
2021,06,25,02,10,19.60
2021,06,25,02,11,19.50
2021,06,25,02,12,19.50
2021,06,25,02,13,19.40
2021,06,25,02,14,19.30
2021,06,25,02,15,19.20
2021,06,25,02,16,19.10
2021,06,25,02,17,19.10
2021,06,25,02,18,19.00
2021,06,25,02,19,18.90
2021,06,25,02,20,18.90
2021,06,25,02,21,18.80
2021,06,25,02,22,18.80
2021,06,25,02,23,18.70
2021,06,25,02,24,18.70
2021,06,25,02,25,18.70
2021,06,25,02,26,18.60
2021,06,25,02,27,18.60
2021,06,25,02,28,18.60
2021,06,25,02,29,18.50
2021,06,25,02,30,18.50
2021,06,25,02,31,18.40
2021,06,25,02,32,18.40
2021,06,25,02,33,18.40
2021,06,25,02,34,18.30
2021,06,25,02,35,18.30
2021,06,25,02,36,18.20
2021,06,25,02,37,18.20
2021,06,25,02,38,18.20
2021,06,25,02,39,18.10
2021,06,25,02,40,18.10
2021,06,25,02,41,18.10
2021,06,25,02,42,18.00
2021,06,25,02,43,18.00
2021,06,25,02,44,17.90
2021,06,25,02,45,17.90
2021,06,25,02,46,17.80
2021,06,25,02,47,17.80
2021,06,25,02,48,17.70
2021,06,25,02,49,17.70
2021,06,25,02,50,17.70
2021,06,25,02,51,17.60
2021,06,25,02,52,17.60
2021,06,25,02,53,17.60
2021,06,25,02,54,17.60
2021,06,25,02,55,17.50
2021,06,25,02,56,17.50
2021,06,25,02,57,17.50
2021,06,25,02,58,17.50
2021,06,25,02,59,17.50
2021,06,25,03,00,17.40
2021,06,25,03,01,17.40
2021,06,25,03,02,17.40
2021,06,25,03,03,17.40
2021,06,25,03,04,17.30
2021,06,25,03,05,17.30
2021,06,25,03,06,17.30
2021,06,25,03,07,17.30
2021,06,25,03,08,17.30
2021,06,25,03,09,17.30
2021,06,25,03,10,17.30
2021,06,25,03,11,17.30
2021,06,25,03,12,17.30
2021,06,25,03,13,17.20
2021,06,25,03,14,17.20
2021,06,25,03,15,17.20
2021,06,25,03,16,17.20
2021,06,25,03,17,17.20
2021,06,25,03,18,17.20
2021,06,25,03,19,17.10
2021,06,25,03,20,17.10
2021,06,25,03,21,17.10
2021,06,25,03,22,17.10
2021,06,25,03,23,17.10
2021,06,25,03,24,17.00
2021,06,25,03,25,17.00
2021,06,25,03,26,16.90
2021,06,25,03,27,16.90
2021,06,25,03,28,16.90
2021,06,25,03,29,16.90
2021,06,25,03,30,16.80
2021,06,25,03,31,16.80
2021,06,25,03,32,16.80
2021,06,25,03,33,16.80
2021,06,25,03,34,16.80
2021,06,25,03,35,16.80
2021,06,25,03,36,16.70
2021,06,25,03,37,16.70
2021,06,25,03,38,16.70
2021,06,25,03,39,16.70
2021,06,25,03,40,16.70
2021,06,25,03,41,16.70
2021,06,25,03,42,16.60
2021,06,25,03,43,16.60
2021,06,25,03,44,16.60
2021,06,25,03,45,16.60
2021,06,25,03,46,16.60
2021,06,25,03,47,16.60
2021,06,25,03,48,16.60
2021,06,25,03,49,16.60
2021,06,25,03,50,16.50
2021,06,25,03,51,16.50
2021,06,25,03,52,16.50
2021,06,25,03,53,16.50
2021,06,25,03,54,16.50
2021,06,25,03,55,16.40
2021,06,25,03,56,16.40
2021,06,25,03,57,16.40
2021,06,25,03,58,16.40
2021,06,25,03,59,16.40
2021,06,25,04,00,16.40
2021,06,25,04,01,16.40
2021,06,25,04,02,16.30
2021,06,25,04,03,16.30
2021,06,25,04,04,16.30
2021,06,25,04,05,16.30
2021,06,25,04,06,16.30
2021,06,25,04,07,16.30
2021,06,25,04,08,16.20
2021,06,25,04,09,16.20
2021,06,25,04,10,16.20
2021,06,25,04,11,16.20
2021,06,25,04,12,16.10
2021,06,25,04,13,16.10
2021,06,25,04,14,16.10
2021,06,25,04,15,16.10
2021,06,25,04,16,16.00
2021,06,25,04,17,16.00
2021,06,25,04,18,16.00
2021,06,25,04,19,16.00
2021,06,25,04,20,15.90
2021,06,25,04,21,15.90
2021,06,25,04,22,15.90
2021,06,25,04,23,15.90
2021,06,25,04,24,15.90
2021,06,25,04,25,15.90
2021,06,25,04,26,15.80
2021,06,25,04,27,15.80
2021,06,25,04,28,15.80
2021,06,25,04,29,15.80
2021,06,25,04,30,15.80
2021,06,25,04,31,15.80
2021,06,25,04,32,15.80
2021,06,25,04,33,15.70
2021,06,25,04,34,15.70
2021,06,25,04,35,15.70
2021,06,25,04,36,15.70
2021,06,25,04,37,15.70
2021,06,25,04,38,15.70
2021,06,25,04,39,15.70
2021,06,25,04,40,15.60
2021,06,25,04,41,15.60
2021,06,25,04,42,15.60
2021,06,25,04,43,15.60
2021,06,25,04,44,15.60
2021,06,25,04,45,15.60
2021,06,25,04,46,15.60
2021,06,25,04,47,15.60
2021,06,25,04,48,15.60
2021,06,25,04,49,15.50
2021,06,25,04,50,15.50
2021,06,25,04,51,15.50
2021,06,25,04,52,15.50
2021,06,25,04,53,15.50
2021,06,25,04,54,15.50
2021,06,25,04,55,15.40
2021,06,25,04,56,15.40
2021,06,25,04,57,15.40
2021,06,25,04,58,15.40
2021,06,25,04,59,15.40
2021,06,25,05,00,15.40
2021,06,25,05,01,15.40
2021,06,25,05,02,15.40
2021,06,25,05,03,15.40
2021,06,25,05,04,15.40
2021,06,25,05,05,15.40
2021,06,25,05,06,15.40
2021,06,25,05,07,15.40
2021,06,25,05,08,15.40
2021,06,25,05,09,15.40
2021,06,25,05,10,15.40
2021,06,25,05,11,15.30
2021,06,25,05,12,15.30
2021,06,25,05,13,15.30
2021,06,25,05,14,15.30
2021,06,25,05,15,15.30
2021,06,25,05,16,15.30
2021,06,25,05,17,15.30
2021,06,25,05,18,15.30
2021,06,25,05,19,15.30
2021,06,25,05,20,15.30
2021,06,25,05,21,15.30
2021,06,25,05,22,15.30
2021,06,25,05,23,15.30
2021,06,25,05,24,15.30
2021,06,25,05,25,15.30
2021,06,25,05,26,15.30
2021,06,25,05,27,15.30
2021,06,25,05,28,15.30
2021,06,25,05,29,15.20
2021,06,25,05,30,15.20
2021,06,25,05,31,15.20
2021,06,25,05,32,15.20
2021,06,25,05,33,15.20
2021,06,25,05,34,15.20
2021,06,25,05,35,15.20
2021,06,25,05,36,15.20
2021,06,25,05,37,15.20
2021,06,25,05,38,15.10
2021,06,25,05,39,15.10
2021,06,25,05,40,15.10
2021,06,25,05,41,15.10
2021,06,25,05,42,15.10
2021,06,25,05,43,15.10
2021,06,25,05,44,15.10
2021,06,25,05,45,15.10
2021,06,25,05,46,15.10
2021,06,25,05,47,15.10
2021,06,25,05,48,15.10
2021,06,25,05,49,15.10
2021,06,25,05,50,15.10
2021,06,25,05,51,15.10
2021,06,25,05,52,15.10
2021,06,25,05,53,15.10
2021,06,25,05,54,15.00
2021,06,25,05,55,15.00
2021,06,25,05,56,15.00
2021,06,25,05,57,15.00
2021,06,25,05,58,15.00
2021,06,25,05,59,15.00
2021,06,25,06,00,15.00
2021,06,25,06,01,15.00
2021,06,25,06,02,15.00
2021,06,25,06,03,15.00
2021,06,25,06,04,15.00
2021,06,25,06,05,15.00
2021,06,25,06,06,15.00
2021,06,25,06,07,15.00
2021,06,25,06,08,15.00
2021,06,25,06,09,15.00
2021,06,25,06,10,15.00
2021,06,25,06,11,14.90
2021,06,25,06,12,14.90
2021,06,25,06,13,14.90
2021,06,25,06,14,14.90
2021,06,25,06,15,14.90
2021,06,25,06,16,14.90
2021,06,25,06,17,14.90
2021,06,25,06,18,14.90
2021,06,25,06,19,14.90
2021,06,25,06,20,14.90
2021,06,25,06,21,14.90
2021,06,25,06,22,14.90
2021,06,25,06,23,14.90
2021,06,25,06,24,14.90
2021,06,25,06,25,14.90
2021,06,25,06,26,14.90
2021,06,25,06,27,14.90
2021,06,25,06,28,14.90
2021,06,25,06,29,14.90
2021,06,25,06,30,14.90
2021,06,25,06,31,14.90
2021,06,25,06,32,14.90
2021,06,25,06,33,14.90
2021,06,25,06,34,14.90
2021,06,25,06,35,14.90
2021,06,25,06,36,14.90
2021,06,25,06,37,14.90
2021,06,25,06,38,14.90
2021,06,25,06,39,14.90
2021,06,25,06,40,14.90
2021,06,25,06,41,14.90
2021,06,25,06,42,14.90
2021,06,25,06,43,14.90
2021,06,25,06,44,14.90
2021,06,25,06,45,14.90
2021,06,25,06,46,14.90
2021,06,25,06,47,15.00
2021,06,25,06,48,15.00
2021,06,25,06,49,15.00
2021,06,25,06,50,15.00
2021,06,25,06,51,15.00
2021,06,25,06,52,15.00
2021,06,25,06,53,15.00
2021,06,25,06,54,15.00
2021,06,25,06,55,15.10
2021,06,25,06,56,15.10
2021,06,25,06,57,15.10
2021,06,25,06,58,15.10
2021,06,25,06,59,15.20
2021,06,25,07,00,15.20
2021,06,25,07,01,15.20
2021,06,25,07,02,15.30
2021,06,25,07,03,15.30
2021,06,25,07,04,15.30
2021,06,25,07,05,15.30
2021,06,25,07,06,15.40
2021,06,25,07,07,15.40
2021,06,25,07,08,15.50
2021,06,25,07,09,15.50
2021,06,25,07,10,15.60
2021,06,25,07,11,15.70
2021,06,25,07,12,15.70
2021,06,25,07,13,15.80
2021,06,25,07,14,15.90
2021,06,25,07,15,16.00
2021,06,25,07,16,16.10
2021,06,25,07,17,16.20
2021,06,25,07,18,16.30
2021,06,25,07,19,16.30
2021,06,25,07,20,16.40
2021,06,25,07,21,16.50
2021,06,25,07,22,16.60
2021,06,25,07,23,16.70
2021,06,25,07,24,16.70
2021,06,25,07,25,16.80
2021,06,25,07,26,16.80
2021,06,25,07,27,16.90
2021,06,25,07,28,17.00
2021,06,25,07,29,17.10
2021,06,25,07,30,17.10
2021,06,25,07,31,17.30
2021,06,25,07,32,17.30
2021,06,25,07,33,17.40
2021,06,25,07,34,17.40
2021,06,25,07,35,17.50
2021,06,25,07,36,17.50
2021,06,25,07,37,17.60
2021,06,25,07,38,17.60
2021,06,25,07,39,17.70
2021,06,25,07,40,17.70
2021,06,25,07,41,17.80
2021,06,25,07,42,17.80
2021,06,25,07,43,17.80
2021,06,25,07,44,17.80
2021,06,25,07,45,17.80
2021,06,25,07,46,17.80
2021,06,25,07,47,17.90
2021,06,25,07,48,17.90
2021,06,25,07,49,18.00
2021,06,25,07,50,18.00
2021,06,25,07,51,18.10
2021,06,25,07,52,18.20
2021,06,25,07,53,18.30
2021,06,25,07,54,18.30
2021,06,25,07,55,18.40
2021,06,25,07,56,18.50
2021,06,25,07,57,18.60
2021,06,25,07,58,18.70
2021,06,25,07,59,18.80
2021,06,25,08,00,18.80
2021,06,25,08,01,18.90
2021,06,25,08,02,18.90
2021,06,25,08,03,19.00
2021,06,25,08,04,19.00
2021,06,25,08,05,19.00
2021,06,25,08,06,19.10
2021,06,25,08,07,19.10
2021,06,25,08,08,19.20
2021,06,25,08,09,19.20
2021,06,25,08,10,19.20
2021,06,25,08,11,19.30
2021,06,25,08,12,19.40
2021,06,25,08,13,19.40
2021,06,25,08,14,19.40
2021,06,25,08,15,19.50
2021,06,25,08,16,19.50
2021,06,25,08,17,19.60
2021,06,25,08,18,19.60
2021,06,25,08,19,19.70
2021,06,25,08,20,19.70
2021,06,25,08,21,19.80
2021,06,25,08,22,19.80
2021,06,25,08,23,19.80
2021,06,25,08,24,19.80
2021,06,25,08,25,19.80
2021,06,25,08,26,19.80
2021,06,25,08,27,19.80
2021,06,25,08,28,19.80
2021,06,25,08,29,19.80
2021,06,25,08,30,19.80
2021,06,25,08,31,19.80
2021,06,25,08,32,19.80
2021,06,25,08,33,19.90
2021,06,25,08,34,19.90
2021,06,25,08,35,19.90
2021,06,25,08,36,20.00
2021,06,25,08,37,20.10
2021,06,25,08,38,20.10
2021,06,25,08,39,20.10
2021,06,25,08,40,20.20
2021,06,25,08,41,20.20
2021,06,25,08,42,20.20
2021,06,25,08,43,20.20
2021,06,25,08,44,20.30
2021,06,25,08,45,20.30
2021,06,25,08,46,20.40
2021,06,25,08,47,20.40
2021,06,25,08,48,20.40
2021,06,25,08,49,20.50
2021,06,25,08,50,20.50
2021,06,25,08,51,20.60
2021,06,25,08,52,20.60
2021,06,25,08,53,20.60
2021,06,25,08,54,20.70
2021,06,25,08,55,20.70
2021,06,25,08,56,20.80
2021,06,25,08,57,20.90
2021,06,25,08,58,21.00
2021,06,25,08,59,21.10
2021,06,25,09,00,21.10
2021,06,25,09,01,21.20
2021,06,25,09,02,21.20
2021,06,25,09,03,21.30
2021,06,25,09,04,21.30
2021,06,25,09,05,21.40
2021,06,25,09,06,21.40
2021,06,25,09,07,21.50
2021,06,25,09,08,21.60
2021,06,25,09,09,21.60
2021,06,25,09,10,21.60
2021,06,25,09,11,21.70
2021,06,25,09,12,21.70
2021,06,25,09,13,21.90
2021,06,25,09,14,22.00
2021,06,25,09,15,22.00
2021,06,25,09,16,22.10
2021,06,25,09,17,22.20
2021,06,25,09,18,22.20
2021,06,25,09,19,22.30
2021,06,25,09,20,22.40
2021,06,25,09,21,22.50
2021,06,25,09,22,22.60
2021,06,25,09,23,22.60
2021,06,25,09,24,22.60
2021,06,25,09,25,22.60
2021,06,25,09,26,22.60
2021,06,25,09,27,22.60
2021,06,25,09,28,22.60
2021,06,25,09,29,22.60
2021,06,25,09,30,22.60
2021,06,25,09,31,22.70
2021,06,25,09,32,22.80
2021,06,25,09,33,22.80
2021,06,25,09,34,22.90
2021,06,25,09,35,23.00
2021,06,25,09,36,23.10
2021,06,25,09,37,23.20
2021,06,25,09,38,23.20
2021,06,25,09,39,23.30
2021,06,25,09,40,23.30
2021,06,25,09,41,23.40
2021,06,25,09,42,23.50
2021,06,25,09,43,23.50
2021,06,25,09,44,23.50
2021,06,25,09,45,23.40
2021,06,25,09,46,23.50
2021,06,25,09,47,23.40
2021,06,25,09,48,23.40
2021,06,25,09,49,23.40
2021,06,25,09,50,23.30
2021,06,25,09,51,23.30
2021,06,25,09,52,23.30
2021,06,25,09,53,23.30
2021,06,25,09,54,23.30
2021,06,25,09,55,23.30
2021,06,25,09,56,23.40
2021,06,25,09,57,23.40
2021,06,25,09,58,23.40
2021,06,25,09,59,23.50
2021,06,25,10,00,23.60
2021,06,25,10,01,23.70
2021,06,25,10,02,23.80
2021,06,25,10,03,23.90
2021,06,25,10,04,23.90
2021,06,25,10,05,23.90
2021,06,25,10,06,23.90
2021,06,25,10,07,24.00
2021,06,25,10,08,24.00
2021,06,25,10,09,24.10
2021,06,25,10,10,24.10
2021,06,25,10,11,24.20
2021,06,25,10,12,24.20
2021,06,25,10,13,24.30
2021,06,25,10,14,24.40
2021,06,25,10,15,24.50
2021,06,25,10,16,24.50
2021,06,25,10,17,24.50
2021,06,25,10,18,24.60
2021,06,25,10,19,24.70
2021,06,25,10,20,24.80
2021,06,25,10,21,24.90
2021,06,25,10,22,24.90
2021,06,25,10,23,24.90
2021,06,25,10,24,24.90
2021,06,25,10,25,24.90
2021,06,25,10,26,24.90
2021,06,25,10,27,24.90
2021,06,25,10,28,24.80
2021,06,25,10,29,24.90
2021,06,25,10,30,24.90
2021,06,25,10,31,25.00
2021,06,25,10,32,25.00
2021,06,25,10,33,25.00
2021,06,25,10,34,25.00
2021,06,25,10,35,25.00
2021,06,25,10,36,25.00
2021,06,25,10,37,25.00
2021,06,25,10,38,25.10
2021,06,25,10,39,25.30
2021,06,25,10,40,25.50
2021,06,25,10,41,25.60
2021,06,25,10,42,25.70
2021,06,25,10,43,25.80
2021,06,25,10,44,25.80
2021,06,25,10,45,25.80
2021,06,25,10,46,25.80
2021,06,25,10,47,25.80
2021,06,25,10,48,25.80
2021,06,25,10,49,25.80
2021,06,25,10,50,25.80
2021,06,25,10,51,25.80
2021,06,25,10,52,25.90
2021,06,25,10,53,25.90
2021,06,25,10,54,25.90
2021,06,25,10,55,26.00
2021,06,25,10,56,26.00
2021,06,25,10,57,26.10
2021,06,25,10,58,26.10
2021,06,25,10,59,26.20
2021,06,25,11,00,26.20
2021,06,25,11,01,26.30
2021,06,25,11,02,26.30
2021,06,25,11,03,26.40
2021,06,25,11,04,26.40
2021,06,25,11,05,26.50
2021,06,25,11,06,26.50
2021,06,25,11,07,26.60
2021,06,25,11,08,26.60
2021,06,25,11,09,26.70
2021,06,25,11,10,26.70
2021,06,25,11,11,26.80
2021,06,25,11,12,26.90
2021,06,25,11,13,27.00
2021,06,25,11,14,27.00
2021,06,25,11,15,27.10
2021,06,25,11,16,27.20
2021,06,25,11,17,27.20
2021,06,25,11,18,27.30
2021,06,25,11,19,27.40
2021,06,25,11,20,27.60
2021,06,25,11,21,27.80
2021,06,25,11,22,27.90
2021,06,25,11,23,28.00
2021,06,25,11,24,28.10
2021,06,25,11,25,28.20
2021,06,25,11,26,28.10
2021,06,25,11,27,28.10
2021,06,25,11,28,28.10
2021,06,25,11,29,28.00
2021,06,25,11,30,28.00
2021,06,25,11,31,27.90
2021,06,25,11,32,28.00
2021,06,25,11,33,28.00
2021,06,25,11,34,28.10
2021,06,25,11,35,28.10
2021,06,25,11,36,28.10
2021,06,25,11,37,28.20
2021,06,25,11,38,28.20
2021,06,25,11,39,28.20
2021,06,25,11,40,28.30
2021,06,25,11,41,28.40
2021,06,25,11,42,28.50
2021,06,25,11,43,28.50
2021,06,25,11,44,28.60
2021,06,25,11,45,28.60
2021,06,25,11,46,28.60
2021,06,25,11,47,28.60
2021,06,25,11,48,28.60
2021,06,25,11,49,28.50
2021,06,25,11,50,28.40
2021,06,25,11,51,28.40
2021,06,25,11,52,28.40
2021,06,25,11,53,28.50
2021,06,25,11,54,28.60
2021,06,25,11,55,28.70
2021,06,25,11,56,28.70
2021,06,25,11,57,28.80
2021,06,25,11,58,28.90
2021,06,25,11,59,28.90
2021,06,25,12,00,28.90
2021,06,25,12,01,28.90
2021,06,25,12,02,29.00
2021,06,25,12,03,29.00
2021,06,25,12,04,29.00
2021,06,25,12,05,29.10
2021,06,25,12,06,29.10
2021,06,25,12,07,29.10
2021,06,25,12,08,29.10
2021,06,25,12,09,29.20
2021,06,25,12,10,29.20
2021,06,25,12,11,29.20
2021,06,25,12,12,29.10
2021,06,25,12,13,29.10
2021,06,25,12,14,29.20
2021,06,25,12,15,29.20
2021,06,25,12,16,29.30
2021,06,25,12,17,29.50
2021,06,25,12,18,29.60
2021,06,25,12,19,29.80
2021,06,25,12,20,29.80
2021,06,25,12,21,29.90
2021,06,25,12,22,30.00
2021,06,25,12,23,30.20
2021,06,25,12,24,30.30
2021,06,25,12,25,30.30
2021,06,25,12,26,30.40
2021,06,25,12,27,30.50
2021,06,25,12,28,30.50
2021,06,25,12,29,30.50
2021,06,25,12,30,30.30
2021,06,25,12,31,30.30
2021,06,25,12,32,30.30
2021,06,25,12,33,30.30
2021,06,25,12,34,30.30
2021,06,25,12,35,30.40
2021,06,25,12,36,30.40
2021,06,25,12,37,30.50
2021,06,25,12,38,30.60
2021,06,25,12,39,30.70
2021,06,25,12,40,30.80
2021,06,25,12,41,30.90
2021,06,25,12,42,31.00
2021,06,25,12,43,31.10
2021,06,25,12,44,31.20
2021,06,25,12,45,31.30
2021,06,25,12,46,31.40
2021,06,25,12,47,31.40
2021,06,25,12,48,31.40
2021,06,25,12,49,31.50
2021,06,25,12,50,31.60
2021,06,25,12,51,31.70
2021,06,25,12,52,31.70
2021,06,25,12,53,31.70
2021,06,25,12,54,31.70
2021,06,25,12,55,31.70
2021,06,25,12,56,31.60
2021,06,25,12,57,31.70
2021,06,25,12,58,31.70
2021,06,25,12,59,31.70
2021,06,25,13,00,31.70
2021,06,25,13,01,31.70
2021,06,25,13,02,31.80
2021,06,25,13,03,31.80
2021,06,25,13,04,31.80
2021,06,25,13,05,31.80
2021,06,25,13,06,31.80
2021,06,25,13,07,31.80
2021,06,25,13,08,31.90
2021,06,25,13,09,31.90
2021,06,25,13,10,31.90
2021,06,25,13,11,32.00
2021,06,25,13,12,32.00
2021,06,25,13,13,32.10
2021,06,25,13,14,32.10
2021,06,25,13,15,32.20
2021,06,25,13,16,32.20
2021,06,25,13,17,32.20
2021,06,25,13,18,32.20
2021,06,25,13,19,32.30
2021,06,25,13,20,32.40
2021,06,25,13,21,32.50
2021,06,25,13,22,32.60
2021,06,25,13,23,32.80
2021,06,25,13,24,33.00
2021,06,25,13,25,33.10
2021,06,25,13,26,33.30
2021,06,25,13,27,33.40
2021,06,25,13,28,33.50
2021,06,25,13,29,33.50
2021,06,25,13,30,33.50
2021,06,25,13,31,33.60
2021,06,25,13,32,33.80
2021,06,25,13,33,33.80
2021,06,25,13,34,33.80
2021,06,25,13,35,33.80
2021,06,25,13,36,33.80
2021,06,25,13,37,33.80
2021,06,25,13,38,33.90
2021,06,25,13,39,33.90
2021,06,25,13,40,33.80
2021,06,25,13,41,33.70
2021,06,25,13,42,33.80
2021,06,25,13,43,33.80
2021,06,25,13,44,33.80
2021,06,25,13,45,33.90
2021,06,25,13,46,34.00
2021,06,25,13,47,34.00
2021,06,25,13,48,34.00
2021,06,25,13,49,33.90
2021,06,25,13,50,33.90
2021,06,25,13,51,33.90
2021,06,25,13,52,34.00
2021,06,25,13,53,34.10
2021,06,25,13,54,34.20
2021,06,25,13,55,34.30
2021,06,25,13,56,34.30
2021,06,25,13,57,34.30
2021,06,25,13,58,34.30
2021,06,25,13,59,34.30
2021,06,25,14,00,34.30
2021,06,25,14,01,34.40
2021,06,25,14,02,34.40
2021,06,25,14,03,34.40
2021,06,25,14,04,34.40
2021,06,25,14,05,34.40
2021,06,25,14,06,34.40
2021,06,25,14,07,34.50
2021,06,25,14,08,34.50
2021,06,25,14,09,34.40
2021,06,25,14,10,34.40
2021,06,25,14,11,34.30
2021,06,25,14,12,34.30
2021,06,25,14,13,34.30
2021,06,25,14,14,34.30
2021,06,25,14,15,34.30
2021,06,25,14,16,34.40
2021,06,25,14,17,34.40
2021,06,25,14,18,34.50
2021,06,25,14,19,34.50
2021,06,25,14,20,34.50
2021,06,25,14,21,34.60
2021,06,25,14,22,34.70
2021,06,25,14,23,34.70
2021,06,25,14,24,34.80
2021,06,25,14,25,34.90
2021,06,25,14,26,34.90
2021,06,25,14,27,35.00
2021,06,25,14,28,35.10
2021,06,25,14,29,35.20
2021,06,25,14,30,35.30
2021,06,25,14,31,35.40
2021,06,25,14,32,35.40
2021,06,25,14,33,35.40
2021,06,25,14,34,35.40
2021,06,25,14,35,35.30
2021,06,25,14,36,35.30
2021,06,25,14,37,35.30
2021,06,25,14,38,35.40
2021,06,25,14,39,35.40
2021,06,25,14,40,35.50
2021,06,25,14,41,35.50
2021,06,25,14,42,35.40
2021,06,25,14,43,35.40
2021,06,25,14,44,35.30
2021,06,25,14,45,35.30
2021,06,25,14,46,35.30
2021,06,25,14,47,35.30
2021,06,25,14,48,35.30
2021,06,25,14,49,35.40
2021,06,25,14,50,35.40
2021,06,25,14,51,35.50
2021,06,25,14,52,35.50
2021,06,25,14,53,35.60
2021,06,25,14,54,35.60
2021,06,25,14,55,35.70
2021,06,25,14,56,35.70
2021,06,25,14,57,35.80
2021,06,25,14,58,35.90
2021,06,25,14,59,36.00
2021,06,25,15,00,36.10
2021,06,25,15,01,36.20
2021,06,25,15,02,36.20
2021,06,25,15,03,36.20
2021,06,25,15,04,36.20
2021,06,25,15,05,36.10
2021,06,25,15,06,36.10
2021,06,25,15,07,36.10
2021,06,25,15,08,36.10
2021,06,25,15,09,36.10
2021,06,25,15,10,36.10
2021,06,25,15,11,36.10
2021,06,25,15,12,36.10
2021,06,25,15,13,36.10
2021,06,25,15,14,36.10
2021,06,25,15,15,36.20
2021,06,25,15,16,36.20
2021,06,25,15,17,36.30
2021,06,25,15,18,36.30
2021,06,25,15,19,36.30
2021,06,25,15,20,36.30
2021,06,25,15,21,36.30
2021,06,25,15,22,36.30
2021,06,25,15,23,36.30
2021,06,25,15,24,36.30
2021,06,25,15,25,36.30
2021,06,25,15,26,36.30
2021,06,25,15,27,36.40
2021,06,25,15,28,36.50
2021,06,25,15,29,36.60
2021,06,25,15,30,36.80
2021,06,25,15,31,36.80
2021,06,25,15,32,36.80
2021,06,25,15,33,36.90
2021,06,25,15,34,36.90
2021,06,25,15,35,37.00
2021,06,25,15,36,37.00
2021,06,25,15,37,36.90
2021,06,25,15,38,36.90
2021,06,25,15,39,36.90
2021,06,25,15,40,36.90
2021,06,25,15,41,36.90
2021,06,25,15,42,37.00
2021,06,25,15,43,37.10
2021,06,25,15,44,37.20
2021,06,25,15,45,37.30
2021,06,25,15,46,37.30
2021,06,25,15,47,37.30
2021,06,25,15,48,37.30
2021,06,25,15,49,37.20
2021,06,25,15,50,37.20
2021,06,25,15,51,37.20
2021,06,25,15,52,37.30
2021,06,25,15,53,37.30
2021,06,25,15,54,37.30
2021,06,25,15,55,37.40
2021,06,25,15,56,37.40
2021,06,25,15,57,37.50
2021,06,25,15,58,37.50
2021,06,25,15,59,37.50
2021,06,25,16,00,37.50
2021,06,25,16,01,37.60
2021,06,25,16,02,37.60
2021,06,25,16,03,37.70
2021,06,25,16,04,37.80
2021,06,25,16,05,37.80
2021,06,25,16,06,37.80
2021,06,25,16,07,37.80
2021,06,25,16,08,37.80
2021,06,25,16,09,37.70
2021,06,25,16,10,37.70
2021,06,25,16,11,37.60
2021,06,25,16,12,37.60
2021,06,25,16,13,37.60
2021,06,25,16,14,37.60
2021,06,25,16,15,37.60
2021,06,25,16,16,37.60
2021,06,25,16,17,37.60
2021,06,25,16,18,37.70
2021,06,25,16,19,37.80
2021,06,25,16,20,37.90
2021,06,25,16,21,38.00
2021,06,25,16,22,38.10
2021,06,25,16,23,38.10
2021,06,25,16,24,38.10
2021,06,25,16,25,38.10
2021,06,25,16,26,38.10
2021,06,25,16,27,38.10
2021,06,25,16,28,38.10
2021,06,25,16,29,38.00
2021,06,25,16,30,37.90
2021,06,25,16,31,37.90
2021,06,25,16,32,37.90
2021,06,25,16,33,37.90
2021,06,25,16,34,37.90
2021,06,25,16,35,37.90
2021,06,25,16,36,37.90
2021,06,25,16,37,38.00
2021,06,25,16,38,38.10
2021,06,25,16,39,38.00
2021,06,25,16,40,38.00
2021,06,25,16,41,38.00
2021,06,25,16,42,38.10
2021,06,25,16,43,38.10
2021,06,25,16,44,38.10
2021,06,25,16,45,38.10
2021,06,25,16,46,38.10
2021,06,25,16,47,38.20
2021,06,25,16,48,38.20
2021,06,25,16,49,38.10
2021,06,25,16,50,38.10
2021,06,25,16,51,38.20
2021,06,25,16,52,38.20
2021,06,25,16,53,38.20
2021,06,25,16,54,38.20
2021,06,25,16,55,38.20
2021,06,25,16,56,38.20
2021,06,25,16,57,38.20
2021,06,25,16,58,38.30
2021,06,25,16,59,38.40
2021,06,25,17,00,38.40
2021,06,25,17,01,38.40
2021,06,25,17,02,38.40
2021,06,25,17,03,38.40
2021,06,25,17,04,38.30
2021,06,25,17,05,38.30
2021,06,25,17,06,38.20
2021,06,25,17,07,38.20
2021,06,25,17,08,38.30
2021,06,25,17,09,38.20
2021,06,25,17,10,38.10
2021,06,25,17,11,38.10
2021,06,25,17,12,38.00
2021,06,25,17,13,38.00
2021,06,25,17,14,37.90
2021,06,25,17,15,37.80
2021,06,25,17,16,37.90
2021,06,25,17,17,37.90
2021,06,25,17,18,38.00
2021,06,25,17,19,38.10